******** Week 151 almanac for PRN-1 ******** ID: 1 Health: 0 Eccentricity: 0.01146554947 Time of Applicability(s): 233472 Orbital Inclination(rad): 0.9869392705 Rate of Right Ascen(r/s): -7.943188008e-09 SQRT(A) (m 1/2): 5153.62207 Right Ascen at Week(rad): -2.161690521 Argument of Perigee(rad): 0.8833276321 Mean Anom(rad): -2.229571043 Af0(s): 0.0003316166992 Af1(s/s): -1.091394e-11 week: 151 ******** Week 151 almanac for PRN-2 ******** ID: 2 Health: 0 Eccentricity: 0.02062034607 Time of Applicability(s): 233472 Orbital Inclination(rad): 0.9652837761 Rate of Right Ascen(r/s): -8.023191341e-09 SQRT(A) (m 1/2): 5153.651855 Right Ascen at Week(rad): -2.251253877 Argument of Perigee(rad): -1.436375643 Mean Anom(rad): -2.091232267 Af0(s): -0.0005147595581 Af1(s/s): 0 week: 151 ******** Week 151 almanac for PRN-3 ******** ID: 3 Health: 0 Eccentricity: 0.003900527954 Time of Applicability(s): 233472 Orbital Inclination(rad): 0.9725102637 Rate of Right Ascen(r/s): -8.171768958e-09 SQRT(A) (m 1/2): 5153.620117 Right Ascen at Week(rad): -1.126317155 Argument of Perigee(rad): 0.9533061429 Mean Anom(rad): 2.905824751 Af0(s): -0.0001138048218 Af1(s/s): -1.818989e-11 week: 151 ******** Week 151 almanac for PRN-4 ******** ID: 4 Health: 0 Eccentricity: 0.001731872559 Time of Applicability(s): 233472 Orbital Inclination(rad): 0.9616525559 Rate of Right Ascen(r/s): -7.634603726e-09 SQRT(A) (m 1/2): 5153.608398 Right Ascen at Week(rad): -0.04507154637 Argument of Perigee(rad): -3.03824407 Mean Anom(rad): -0.4667702055 Af0(s): -0.000147720166 Af1(s/s): 3.637979e-12 week: 151 ******** Week 151 almanac for PRN-5 ******** ID: 5 Health: 0 Eccentricity: 0.005861759186 Time of Applicability(s): 233472 Orbital Inclination(rad): 0.9595013876 Rate of Right Ascen(r/s): -8.308917528e-09 SQRT(A) (m 1/2): 5153.620605 Right Ascen at Week(rad): -1.166920832 Argument of Perigee(rad): 1.009173603 Mean Anom(rad): 0.4261103519 Af0(s): -5.803292236e-05 Af1(s/s): 0 week: 151 ******** Week 151 almanac for PRN-6 ******** ID: 6 Health: 0 Eccentricity: 0.002689838409 Time of Applicability(s): 233472 Orbital Inclination(rad): 0.9863041066 Rate of Right Ascen(r/s): -7.931758961e-09 SQRT(A) (m 1/2): 5153.631836 Right Ascen at Week(rad): -2.16996076 Argument of Perigee(rad): -0.9361338721 Mean Anom(rad): -1.922357685 Af0(s): 0.0001718377441 Af1(s/s): 1.091394e-11 week: 151 ******** Week 151 almanac for PRN-7 ******** ID: 7 Health: 0 Eccentricity: 0.01561021805 Time of Applicability(s): 233472 Orbital Inclination(rad): 0.9508847298 Rate of Right Ascen(r/s): -8.091765626e-09 SQRT(A) (m 1/2): 5153.626953 Right Ascen at Week(rad): 0.9734074331 Argument of Perigee(rad): -2.288836032 Mean Anom(rad): -2.900626968 Af0(s): 0.0002479588501 Af1(s/s): 3.637979e-12 week: 151 ******** Week 151 almanac for PRN-8 ******** ID: 8 Health: 0 Eccentricity: 0.007355690002 Time of Applicability(s): 233472 Orbital Inclination(rad): 0.9648703203 Rate of Right Ascen(r/s): -7.657461821e-09 SQRT(A) (m 1/2): 5153.685059 Right Ascen at Week(rad): 3.041854318 Argument of Perigee(rad): 0.1164439723 Mean Anom(rad): 0.01842424777 Af0(s): -4.59741333e-05 Af1(s/s): 0 week: 151 ******** Week 151 almanac for PRN-9 ******** ID: 9 Health: 0 Eccentricity: 0.002212047577 Time of Applicability(s): 233472 Orbital Inclination(rad): 0.9546477765 Rate of Right Ascen(r/s): -7.714607058e-09 SQRT(A) (m 1/2): 5153.571777 Right Ascen at Week(rad): -0.09811747089 Argument of Perigee(rad): 1.879784849 Mean Anom(rad): 0.3970340007 Af0(s): -0.0002781058228 Af1(s/s): 3.637979e-12 week: 151 ******** Week 151 almanac for PRN-10 ******** ID: 10 Health: 0 Eccentricity: 0.007540225983 Time of Applicability(s): 233472 Orbital Inclination(rad): 0.9723364924 Rate of Right Ascen(r/s): -8.160339911e-09 SQRT(A) (m 1/2): 5153.628418 Right Ascen at Week(rad): -1.129100491 Argument of Perigee(rad): -2.5061325 Mean Anom(rad): 2.013983825 Af0(s): -0.0002637860107 Af1(s/s): -1.091394e-11 week: 151 ******** Week 151 almanac for PRN-11 ******** ID: 11 Health: 255 Eccentricity: 0.0002751350403 Time of Applicability(s): 233472 Orbital Inclination(rad): 0.9620240669 Rate of Right Ascen(r/s): -8.194627053e-09 SQRT(A) (m 1/2): 5153.724609 Right Ascen at Week(rad): -2.118250702 Argument of Perigee(rad): 2.792518399 Mean Anom(rad): -0.04180284902 Af0(s): -5.878659668e-05 Af1(s/s): 1.091394e-11 week: 151 ******** Week 151 almanac for PRN-12 ******** ID: 12 Health: 0 Eccentricity: 0.008716583252 Time of Applicability(s): 233472 Orbital Inclination(rad): 0.9698677421 Rate of Right Ascen(r/s): -7.908900866e-09 SQRT(A) (m 1/2): 5153.534668 Right Ascen at Week(rad): 2.086632946 Argument of Perigee(rad): 1.251606983 Mean Anom(rad): 2.73678651 Af0(s): -0.0001409370972 Af1(s/s): -7.275958e-12 week: 151 ******** Week 151 almanac for PRN-13 ******** ID: 13 Health: 0 Eccentricity: 0.005805015564 Time of Applicability(s): 233472 Orbital Inclination(rad): 0.9691007517 Rate of Right Ascen(r/s): -7.577458489e-09 SQRT(A) (m 1/2): 5153.635742 Right Ascen at Week(rad): 0.05488175798 Argument of Perigee(rad): 0.9521444221 Mean Anom(rad): -0.5273781759 Af0(s): 0.0002132898315 Af1(s/s): 7.275958e-12 week: 151 ******** Week 151 almanac for PRN-14 ******** ID: 14 Health: 0 Eccentricity: 0.001490116119 Time of Applicability(s): 233472 Orbital Inclination(rad): 0.9532516143 Rate of Right Ascen(r/s): -8.160339911e-09 SQRT(A) (m 1/2): 5153.586914 Right Ascen at Week(rad): 2.055104697 Argument of Perigee(rad): 3.021426457 Mean Anom(rad): 2.798496654 Af0(s): -7.084538574e-05 Af1(s/s): -3.637979e-12 week: 151 ******** Week 151 almanac for PRN-15 ******** ID: 15 Health: 0 Eccentricity: 0.01393651962 Time of Applicability(s): 233472 Orbital Inclination(rad): 0.9304755948 Rate of Right Ascen(r/s): -8.000333246e-09 SQRT(A) (m 1/2): 5153.69873 Right Ascen at Week(rad): -0.2044894512 Argument of Perigee(rad): 1.077972417 Mean Anom(rad): -0.9687841439 Af0(s): -6.330864258e-05 Af1(s/s): 3.637979e-12 week: 151 ******** Week 151 almanac for PRN-16 ******** ID: 16 Health: 0 Eccentricity: 0.01279211044 Time of Applicability(s): 233472 Orbital Inclination(rad): 0.9698138131 Rate of Right Ascen(r/s): -7.897471818e-09 SQRT(A) (m 1/2): 5153.553223 Right Ascen at Week(rad): 2.105248567 Argument of Perigee(rad): 0.7125389449 Mean Anom(rad): 0.8817681848 Af0(s): -0.0003760834839 Af1(s/s): -3.637979e-12 week: 151 ******** Week 151 almanac for PRN-17 ******** ID: 17 Health: 0 Eccentricity: 0.01356077194 Time of Applicability(s): 233472 Orbital Inclination(rad): 0.9800303648 Rate of Right Ascen(r/s): -7.474597061e-09 SQRT(A) (m 1/2): 5153.729004 Right Ascen at Week(rad): 3.123914051 Argument of Perigee(rad): -1.495226052 Mean Anom(rad): -0.06833442495 Af0(s): 0.000459741333 Af1(s/s): 3.637979e-12 week: 151 ******** Week 151 almanac for PRN-18 ******** ID: 18 Health: 0 Eccentricity: 0.002114772797 Time of Applicability(s): 233472 Orbital Inclination(rad): 0.9707246142 Rate of Right Ascen(r/s): -8.126052768e-09 SQRT(A) (m 1/2): 5153.566895 Right Ascen at Week(rad): -2.154085407 Argument of Perigee(rad): 3.092402655 Mean Anom(rad): -2.007032975 Af0(s): 0.0001816355103 Af1(s/s): -7.275958e-12 week: 151 ******** Week 151 almanac for PRN-19 ******** ID: 19 Health: 0 Eccentricity: 0.008998394012 Time of Applicability(s): 233472 Orbital Inclination(rad): 0.9787959897 Rate of Right Ascen(r/s): -7.486026109e-09 SQRT(A) (m 1/2): 5153.649902 Right Ascen at Week(rad): -3.114431907 Argument of Perigee(rad): 2.013751631 Mean Anom(rad): 2.349060507 Af0(s): 9.873133545e-05 Af1(s/s): 3.637979e-12 week: 151 ******** Week 151 almanac for PRN-20 ******** ID: 20 Health: 0 Eccentricity: 0.00511264801 Time of Applicability(s): 233472 Orbital Inclination(rad): 0.9416868372 Rate of Right Ascen(r/s): -8.537498478e-09 SQRT(A) (m 1/2): 5153.69873 Right Ascen at Week(rad): -1.281257454 Argument of Perigee(rad): -3.13877374 Mean Anom(rad): -1.231019957 Af0(s): 0.0004084914795 Af1(s/s): 0 week: 151 ******** Week 151 almanac for PRN-21 ******** ID: 21 Health: 0 Eccentricity: 0.02458286285 Time of Applicability(s): 233472 Orbital Inclination(rad): 0.9595373402 Rate of Right Ascen(r/s): -8.034620388e-09 SQRT(A) (m 1/2): 5153.526367 Right Ascen at Week(rad): -2.252979231 Argument of Perigee(rad): -0.9947356084 Mean Anom(rad): 0.131586415 Af0(s): 0.0001258636108 Af1(s/s): 0 week: 151 ******** Week 151 almanac for PRN-22 ******** ID: 22 Health: 0 Eccentricity: 0.01299285889 Time of Applicability(s): 233472 Orbital Inclination(rad): 0.9618023587 Rate of Right Ascen(r/s): -7.646032773e-09 SQRT(A) (m 1/2): 5153.621582 Right Ascen at Week(rad): 0.003230497627 Argument of Perigee(rad): -1.870544637 Mean Anom(rad): -0.1790637945 Af0(s): 0.0001748524414 Af1(s/s): 7.275958e-12 week: 151 ******** Week 151 almanac for PRN-23 ******** ID: 23 Health: 0 Eccentricity: 0.002000808716 Time of Applicability(s): 233472 Orbital Inclination(rad): 0.9673810154 Rate of Right Ascen(r/s): -8.228914196e-09 SQRT(A) (m 1/2): 5153.650391 Right Ascen at Week(rad): -1.15403854 Argument of Perigee(rad): 2.983261195 Mean Anom(rad): -2.965730895 Af0(s): -2.261022949e-06 Af1(s/s): -3.637979e-12 week: 151 ******** Week 151 almanac for PRN-24 ******** ID: 24 Health: 0 Eccentricity: 0.01235628128 Time of Applicability(s): 233472 Orbital Inclination(rad): 0.9344423733 Rate of Right Ascen(r/s): -8.206056101e-09 SQRT(A) (m 1/2): 5153.631836 Right Ascen at Week(rad): 0.8904020699 Argument of Perigee(rad): 0.8099575856 Mean Anom(rad): -1.934794314 Af0(s): 0.0002147971802 Af1(s/s): -3.637979e-12 week: 151 ******** Week 151 almanac for PRN-25 ******** ID: 25 Health: 0 Eccentricity: 0.01054525375 Time of Applicability(s): 233472 Orbital Inclination(rad): 0.9572663296 Rate of Right Ascen(r/s): -8.103194673e-09 SQRT(A) (m 1/2): 5153.64209 Right Ascen at Week(rad): 2.009708079 Argument of Perigee(rad): 0.9851800616 Mean Anom(rad): 2.471760619 Af0(s): 0.0002313780151 Af1(s/s): 3.637979e-12 week: 151 ******** Week 151 almanac for PRN-26 ******** ID: 26 Health: 0 Eccentricity: 0.006910324097 Time of Applicability(s): 233472 Orbital Inclination(rad): 0.9380915698 Rate of Right Ascen(r/s): -8.331775623e-09 SQRT(A) (m 1/2): 5153.639648 Right Ascen at Week(rad): 1.962425443 Argument of Perigee(rad): 0.3764885451 Mean Anom(rad): 1.817271387 Af0(s): 0.000147720166 Af1(s/s): 3.637979e-12 week: 151 ******** Week 151 almanac for PRN-27 ******** ID: 27 Health: 0 Eccentricity: 0.01032066345 Time of Applicability(s): 233472 Orbital Inclination(rad): 0.9735768597 Rate of Right Ascen(r/s): -7.554600394e-09 SQRT(A) (m 1/2): 5153.611816 Right Ascen at Week(rad): 3.061385234 Argument of Perigee(rad): 0.6439037908 Mean Anom(rad): -0.01035137427 Af0(s): 0.0001092827759 Af1(s/s): 1.455192e-11 week: 151 ******** Week 151 almanac for PRN-29 ******** ID: 29 Health: 0 Eccentricity: 0.001874446869 Time of Applicability(s): 233472 Orbital Inclination(rad): 0.9820497067 Rate of Right Ascen(r/s): -7.463168014e-09 SQRT(A) (m 1/2): 5153.708008 Right Ascen at Week(rad): 3.136947644 Argument of Perigee(rad): 2.243746134 Mean Anom(rad): 0.1225124842 Af0(s): -0.0003843739014 Af1(s/s): -3.637979e-12 week: 151 ******** Week 151 almanac for PRN-30 ******** ID: 30 Health: 0 Eccentricity: 0.005566596985 Time of Applicability(s): 233472 Orbital Inclination(rad): 0.9360362752 Rate of Right Ascen(r/s): -8.251772291e-09 SQRT(A) (m 1/2): 5153.508301 Right Ascen at Week(rad): 0.98632081 Argument of Perigee(rad): -2.738918578 Mean Anom(rad): -2.854425909 Af0(s): -0.0004077378052 Af1(s/s): -3.637979e-12 week: 151 ******** Week 151 almanac for PRN-31 ******** ID: 31 Health: 0 Eccentricity: 0.01044511795 Time of Applicability(s): 233472 Orbital Inclination(rad): 0.9550852007 Rate of Right Ascen(r/s): -8.046049436e-09 SQRT(A) (m 1/2): 5153.635742 Right Ascen at Week(rad): 0.9915601633 Argument of Perigee(rad): 0.3792992204 Mean Anom(rad): 2.928174207 Af0(s): -0.0001318930054 Af1(s/s): 0 week: 151 ******** Week 151 almanac for PRN-32 ******** ID: 32 Health: 0 Eccentricity: 0.005700111389 Time of Applicability(s): 233472 Orbital Inclination(rad): 0.9584887206 Rate of Right Ascen(r/s): -7.680319916e-09 SQRT(A) (m 1/2): 5153.531738 Right Ascen at Week(rad): -0.08685567004 Argument of Perigee(rad): -2.332544372 Mean Anom(rad): 0.6140259945 Af0(s): -6.029394531e-05 Af1(s/s): -7.275958e-12 week: 151